Calgary Springbank,

9:33 AM MDT on October 19, 2017 (GMT -0600)
Calgary Springbank

Weather History for CYBW - March, 2013

Change the Weather History Date:

Friday, March 29, 2013

  Actual Average Record
Temperature  
Mean Temperature 38 °F -  
Max Temperature 56 °F 46 °F 66 °F (2004)
Min Temperature 21 °F 24 °F 3 °F (1998)
Degree Days  
Heating Degree Days 26    
Moisture  
Dew Point 21 °F    
Average Humidity 47    
Maximum Humidity 80    
Minimum Humidity 17    
Precipitation  
Precipitation 0.00 in - - ()
Sea Level Pressure  
Sea Level Pressure 30.14 in    
Wind  
Wind Speed 8 mph ()    
Max Wind Speed 13 mph    
Max Gust Speed -    
Visibility 15.0 miles    
Events      
Averages and records for this station are not official NWS values.
T = Trace of Precipitation, MM = Missing Value Source: Averaged Metar Reports

Daily Weather History Graph

Daily Weather History Graph

Search for Another Location

Airport or City:

Trip Planner

Search our weather history database for the weather conditions in past years. The results will help you decide how hot, cold, wet, or windy it might be!

Date:

Astronomy

Mar. 29, 2013 Rise Set
Actual Time 7:19 AM MDT 8:06 PM MDT
Civil Twilight 6:45 AM MDT 8:39 PM MDT
Nautical Twilight 6:05 AM MDT 9:19 PM MDT
Astronomical Twilight 5:23 AM MDT 10:02 PM MDT
Moon 11:35 PM MDT (3/29) 8:11 AM MDT (3/29)
Length of Visible Light 13h 53m
Length of Day
12h 47m
Waning Gibbous, 93% of the Moon is Illuminated
Mar 29
Waning Gibbous
Apr 2
Last Quarter
Apr 10
New
Apr 18
First Quarter
Apr 25
Full

Hourly Weather History & Observations

Time (MDT) Temp. Windchill Dew Point Humidity Pressure Visibility Wind Dir Wind Speed Gust Speed Precip Events Conditions
5:00 AM 23.0 °F 13.1 °F 17.6 °F 80% 30.12 in 15.0 mi NNW 9.2 mph - N/A   Partly Cloudy
6:00 AM 24 °F - 18 °F 71% 30.14 in 15 mi NNW 11.5 mph - -  
6:00 AM 24.8 °F 13.4 °F 19.4 °F 80% 30.14 in 15.0 mi NNW 12.7 mph - N/A   Partly Cloudy
7:00 AM 24.8 °F 14.0 °F 17.6 °F 74% 30.15 in 25.0 mi NNW 11.5 mph - N/A   Partly Cloudy
8:00 AM 28.4 °F 19.1 °F 21.2 °F 74% 30.17 in 30.0 mi NNW 10.4 mph - N/A   Partly Cloudy
9:00 AM 32.0 °F 25.6 °F 23.0 °F 69% 30.17 in 30.0 mi NNW 6.9 mph - N/A   Partly Cloudy
10:00 AM 42.8 °F 38.6 °F 24.8 °F 49% 30.15 in 30.0 mi NNW 6.9 mph - N/A   Partly Cloudy
11:00 AM 50.0 °F - 21.2 °F 32% 30.14 in 30.0 mi NW 12.7 mph - N/A   Partly Cloudy
12:00 PM 51 °F - 19 °F 17% 30.14 in 28 mi WNW 9.2 mph - -   Scattered Clouds
12:00 PM 51.8 °F - 19.4 °F 28% 30.14 in 30.0 mi WNW 8.1 mph - N/A   Partly Cloudy
1:00 PM 53.6 °F - 17.6 °F 24% 30.14 in 30.0 mi West 5.8 mph - N/A   Partly Cloudy
2:00 PM 51.8 °F - 17.6 °F 26% 30.14 in 30.0 mi WSW 4.6 mph - N/A   Scattered Clouds
3:00 PM 53.6 °F - 17.6 °F 24% 30.13 in 30.0 mi North 3.5 mph - N/A   Mostly Cloudy
4:00 PM 53.6 °F - 24.8 °F 33% 30.11 in 30.0 mi Variable 10.4 mph - N/A   Mostly Cloudy
5:00 PM 50.0 °F - 24.8 °F 37% 30.13 in 30.0 mi East 12.7 mph - N/A   Mostly Cloudy
6:00 PM 48 °F - 23 °F 25% 30.14 in 28 mi SE 10.4 mph - -   Mostly Cloudy
6:00 PM 48.2 °F - 23.0 °F 37% 30.13 in 30.0 mi ESE 9.2 mph - N/A   Mostly Cloudy
7:00 PM 48.2 °F - 24.8 °F 40% 30.13 in 30.0 mi SE 8.1 mph - N/A   Partly Cloudy
8:00 PM 41.0 °F 39.0 °F 23.0 °F 49% 30.15 in 30.0 mi SE 3.5 mph - N/A   Partly Cloudy
8:34 PM 35.6 °F 28.6 °F 19.4 °F 52% 30.17 in 15.0 mi West 9.2 mph - N/A   Clear
9:00 PM 33.8 °F 25.3 °F 21.2 °F 60% 30.18 in 15.0 mi West 11.5 mph - N/A   Clear